カタリナ彗星

346P/Catalina (2007)

English version
Home page
Updated on May 22, 2017

---------------------------------------------------------------------

・ プロフィール

符号 346P/2007 T6
発見日 2007年10月13日
発見光度 17.8等
発見者 Catalina Sky Survey

・ 軌道要素

Epoch 2007 Aug. 8.0 TT = JDT 2454320.5
T 2007 Aug. 19.67080 TT                                 MPCW
q   2.2322732            (2000.0)            P               Q
n   0.10359369     Peri.  335.87169     +0.16983655     -0.91421516
a   4.4900086      Node   102.63362     +0.95433580     +0.05947148
e   0.5028354      Incl.   22.15109     +0.24576154     +0.40084133
P   9.51
From 291 observations 1998 Jan. 29-2016 Oct. 7, mean residual 0".6.

・ 星図

・ 光度変化

        m1 = 9.5 + 5 logΔ + 18.0 log r(t - 100)

---------------------------------------------------------------------

軌道要素はM.P.E.C. 2016-U66に掲載されたものです。
星図はステラナビゲータ Ver.8 (アストロアーツ) で作成したものです。
光度グラフはComet for Windowsで作成したものです。

---------------------------------------------------------------------

Copyright(C) Seiichi Yoshida (comet@aerith.net). All rights reserved.